CW3827 Weather Reports


time (UTC)temp
C
wind
direction
speed
KPH
gust
KPH
rain 1hr
cm
rain 24hr
cm
rain mn
cm
humidity
%
barometer
mb
20260902014531 20 78 12.9 14.5 0.00 0.00 0.00 74 1024.0
20260902013019 20 50 11.3 16.1 0.00 0.00 0.00 69 1023.8
20260902011510 21 53 9.7 17.7 0.00 0.00 0.00 68 1023.5
20260902010015 22 55 12.9 17.7 0.00 0.00 0.00 66 1023.5
20260902004508 22 70 14.5 27.4 0.00 0.00 0.00 58 1023.6
20260902003003 23 84 12.9 19.3 0.00 0.00 0.00 57 1023.6
20260902001503 23 103 14.5 27.4 0.00 0.00 0.00 56 1023.6
20260902000006 23 99 8.0 14.5 0.00 0.00 0.00 56 1023.8
20260901234514 23 65 9.7 14.5 0.00 0.00 0.00 57 1023.5
20260901233021 23 70 8.0 17.7 0.00 0.00 0.00 62 1023.4
20260901231511 25 110 29.0 41.8 0.00 0.00 0.00 50 1023.5
20260901230006 26 84 14.5 25.7 0.00 0.00 0.00 44 1023.5
20260901224504 26 60 20.9 27.4 0.00 0.00 0.00 44 1023.6
20260901223004 26 61 17.7 27.4 0.00 0.00 0.00 44 1023.7
20260901221518 26 44 17.7 29.0 0.00 0.00 0.00 43 1023.6
20260901220016 26 108 24.1 30.6 0.00 0.00 0.00 44 1023.7
20260901214526 26 49 22.5 33.8 0.00 0.00 0.00 44 1023.9
20260901213009 26 27 25.7 35.4 0.00 0.00 0.00 45 1024.0
20260901211504 25 89 30.6 37.0 0.00 0.00 0.00 49 1024.2
20260901210004 25 44 27.4 41.8 0.00 0.00 0.00 48 1024.5
20260901204524 25 61 27.4 35.4 0.00 0.00 0.00 45 1024.5
20260901203020 26 63 30.6 40.2 0.00 0.00 0.00 45 1024.8
20260901201514 26 92 32.2 48.3 0.00 0.00 0.00 42 1025.0
20260901200018 28 197 1.6 12.9 0.00 0.00 0.00 34 1025.0
20260901194513 28 354 9.7 17.7 0.00 0.00 0.00 35 1025.0
20260901193030 28 330 6.4 20.9 0.00 0.00 0.00 35 1025.3
20260901191527 27 330 11.3 24.1 0.00 0.00 0.00 36 1025.5
20260901190030 27 342 14.5 24.1 0.00 0.00 0.00 37 1025.6
20260901184520 27 11 9.7 17.7 0.00 0.00 0.00 39 1025.5
20260901183016 27 12 12.9 19.3 0.00 0.00 0.00 38 1025.6
20260901181518 27 28 11.3 19.3 0.00 0.00 0.00 37 1025.8
20260901180033 27 22 3.2 25.7 0.00 0.00 0.00 37 1025.9
20260901174530 26 273 11.3 17.7 0.00 0.00 0.00 39 1026.2
20260901173026 25 271 6.4 12.9 0.00 0.00 0.00 42 1026.2
20260901171523 25 195 8.0 16.1 0.00 0.00 0.00 43 1026.3
20260901170016 25 304 4.8 14.5 0.00 0.00 0.00 43 1026.3
20260901164516 25 302 9.7 14.5 0.00 0.00 0.00 45 1026.3
20260901163037 25 283 8.0 16.1 0.00 0.00 0.00 44 1026.1
20260901161508 26 288 8.0 14.5 0.00 0.00 0.00 43 1026.0
20260901160011 25 267 4.8 9.7 0.00 0.00 0.00 45 1025.8
20260901154505 25 293 3.2 9.7 0.00 0.00 0.00 46 1025.8
20260901153007 25 292 1.6 8.0 0.00 0.00 0.00 45 1025.9
20260901151521 25 322 3.2 8.0 0.00 0.00 0.00 48 1025.8
20260901150012 25 57 1.6 3.2 0.00 0.00 0.00 46 1025.8
20260901144514 23 72 3.2 8.0 0.00 0.00 0.00 53 1025.8
20260901143010 23 82 3.2 6.4 0.00 0.00 0.00 50 1025.7
20260901141509 22 84 4.8 8.0 0.00 0.00 0.00 56 1025.7
20260901140027 20 98 6.4 6.4 0.00 0.00 0.00 68 1025.9
20260901134527 18 60 3.2 6.4 0.00 0.00 0.00 71 1025.9
20260901133018 18 56 6.4 9.7 0.00 0.00 0.00 70 1025.6
20260901131516 16 54 8.0 9.7 0.00 0.00 0.00 77 1025.6
20260901130010 16 41 6.4 8.0 0.00 0.00 0.00 78 1025.3
20260901124512 16 22 8.0 8.0 0.00 0.00 0.00 76 1025.2
20260901123036 17 59 4.8 9.7 0.00 0.00 0.00 73 1024.9
20260901121527 17 77 8.0 8.0 0.00 0.00 0.00 73 1024.8
20260901120023 15 91 4.8 8.0 0.00 0.00 0.00 78 1024.8
20260901114520 15 70 8.0 9.7 0.00 0.00 0.00 79 1024.6
20260901113018 15 44 4.8 8.0 0.00 0.00 0.00 79 1024.4
20260901111511 15 37 8.0 12.9 0.00 0.00 0.00 80 1024.3
20260901110036 15 32 8.0 9.7 0.00 0.00 0.00 81 1024.1
20260901104530 16 40 6.4 12.9 0.00 0.00 0.00 77 1024.1
20260901103026 16 74 8.0 11.3 0.00 0.00 0.00 78 1024.2
20260901101523 16 39 8.0 9.7 0.00 0.00 0.00 78 1024.3
20260901100016 17 54 9.7 11.3 0.00 0.00 0.00 76 1024.5
20260901094515 16 55 9.7 11.3 0.00 0.00 0.00 79 1024.5
20260901093031 16 46 6.4 8.0 0.00 0.00 0.00 80 1024.5
20260901091530 16 85 8.0 9.7 0.00 0.00 0.00 80 1024.8
20260901090025 16 94 4.8 6.4 0.00 0.00 0.00 79 1025.0
20260901084526 17 202 6.4 8.0 0.00 0.00 0.00 76 1025.0
20260901083022 17 210 1.6 8.0 0.00 0.00 0.00 74 1025.1
20260901081534 18 128 0.0 0.0 0.00 0.00 0.00 67 1025.1
20260901080014 18 122 0.0 12.9 0.00 0.00 0.00 65 1025.0
20260901074509 20 86 6.4 12.9 0.00 0.00 0.00 59 1025.0
20260901073008 20 90 12.9 16.1 0.00 0.00 0.00 59 1025.0
20260901071504 20 87 9.7 20.9 0.00 0.00 0.00 56 1025.0
20260901070003 21 138 8.0 19.3 0.00 0.00 0.00 58 1025.1
20260901064504 21 264 6.4 19.3 0.00 0.00 0.00 54 1025.2
20260901063021 21 6 4.8 11.3 0.00 0.00 0.00 54 1025.1
20260901061514 20 166 6.4 12.9 0.00 0.00 0.00 61 1025.0
20260901060013 20 20 8.0 11.3 0.00 0.00 0.00 60 1024.9
20260901054505 21 33 8.0 11.3 0.00 0.00 0.00 56 1024.6
20260901053006 22 65 0.0 6.4 0.00 0.00 0.00 51 1024.3
20260901051510 21 204 0.0 16.1 0.00 0.00 0.00 53 1024.2
20260901050026 20 89 16.1 24.1 0.00 0.00 0.00 56 1023.7
20260901044520 20 70 19.3 27.4 0.00 0.00 0.00 61 1023.4
20260901043012 20 96 19.3 33.8 0.00 0.00 0.00 58 1023.4
20260901041518 20 77 20.9 33.8 0.00 0.00 0.00 55 1023.6
20260901040004 20 55 14.5 25.7 0.00 0.00 0.00 59 1023.9
20260901034504 22 77 16.1 27.4 0.00 0.00 0.00 54 1024.0
20260901033023 25 116 40.2 61.2 0.00 0.00 0.00 36 1023.4
20260901031518 25 57 30.6 46.7 0.00 0.00 0.00 34 1022.7
20260901030013 25 51 30.6 45.1 0.00 0.00 0.00 38 1022.4
20260901024513 23 33 20.9 25.7 0.00 0.00 0.00 42 1022.1
20260901023007 23 58 16.1 27.4 0.00 0.00 0.00 39 1022.0
20260901021533 23 30 19.3 25.7 0.00 0.00 0.00 40 1021.7
20260901020025 24 63 14.5 17.7 0.00 0.00 0.00 38 1021.5